Ketchikan, AK

8:57 AM AKST on November 13, 2018 (GMT -0900)
Ketchikan International

Weather History for PAKT - June, 2018

Change the Weather History Date:

Sunday, June 17, 2018

  Actual Average Record
Temperature  
Mean Temperature 65 °F -  
Max Temperature 73 °F 62 °F 86 °F (1950)
Min Temperature 57 °F 47 °F 38 °F (1965)
Growing Degree Days 15 (Base 50)    
Moisture  
Dew Point 53 °F    
Average Humidity 67    
Maximum Humidity 94    
Minimum Humidity 48    
Precipitation  
Precipitation 0.00 in - - ()
Sea Level Pressure  
Sea Level Pressure 30.18 in    
Wind  
Wind Speed 8 mph (NW)    
Max Wind Speed 17 mph    
Max Gust Speed 21 mph    
Visibility 10 miles    
Events      
Averages and records for this station are not official NWS values.
T = Trace of Precipitation, MM = Missing Value Source: NWS Daily Summary

Daily Weather History Graph

Daily Weather History Graph

Search for Another Location

Airport or City:

Astronomy

Jun. 17, 2018 Rise Set
Actual Time 4:04 AM AKDT 9:31 PM AKDT
Civil Twilight 3:04 AM AKDT 10:31 PM AKDT
Nautical Twilight 1:20 AM AKDT 12:15 AM AKDT
Astronomical Twilight Sun does not rise Sun does not rise
Moon 9:01 AM AKDT (6/17) No Moon Set
Length of Visible Light 19h 26m
Length of Day
17h 26m
Waxing Crescent, 22% of the Moon is Illuminated
Jun 17
Waxing Crescent
Jun 20
First Quarter
Jun 27
Full
Jul 5
Last Quarter
Jul 12
New

Hourly Weather History & Observations

Time (AKDT) Temp. Dew Point Humidity Pressure Visibility Wind Dir Wind Speed Gust Speed Precip Events Conditions
12:53 AM 60.1 °F 48.9 °F 67% 30.21 in 10.0 mi WNW 5.8 mph - N/A   Overcast
1:53 AM 59.0 °F 48.9 °F 69% 30.21 in 10.0 mi Calm Calm - N/A   Overcast
2:53 AM 60.1 °F 48.0 °F 64% 30.20 in 10.0 mi WNW 4.6 mph - N/A   Overcast
3:51 AM 60.8 °F 50.0 °F 68% 30.20 in 10.0 mi WNW 3.5 mph - N/A   Overcast
3:53 AM 60.1 °F 50.0 °F 69% 30.20 in 10.0 mi WNW 4.6 mph - N/A   Overcast
4:17 AM 61.0 °F 50.0 °F 67% 30.20 in 10.0 mi WNW 3.5 mph - N/A   Overcast
4:24 AM 61.0 °F 51.1 °F 70% 30.20 in 10.0 mi North 3.5 mph - N/A   Overcast
4:53 AM 60.1 °F 51.1 °F 72% 30.20 in 10.0 mi WNW 5.8 mph - N/A   Overcast
5:53 AM 60.1 °F 51.1 °F 72% 30.20 in 10.0 mi NW 8.1 mph - N/A   Overcast
6:13 AM 57.2 °F 55.4 °F 94% 30.20 in 10.0 mi NW 9.2 mph - N/A   Overcast
6:53 AM 60.8 °F 57.2 °F 88% 30.20 in 10.0 mi NNW 8.1 mph - N/A   Overcast
7:53 AM 60.8 °F 55.4 °F 82% 30.20 in 10.0 mi NNW 11.5 mph - N/A   Mostly Cloudy
8:53 AM 62.6 °F 53.6 °F 72% 30.20 in 10.0 mi NNW 11.5 mph - N/A   Scattered Clouds
9:53 AM 64.4 °F 53.6 °F 68% 30.20 in 10.0 mi NNW 10.4 mph - N/A   Overcast
10:53 AM 64.4 °F 53.6 °F 68% 30.20 in 10.0 mi NNW 15.0 mph - N/A   Clear
11:53 AM 68.0 °F 55.4 °F 64% 30.19 in 10.0 mi North 13.8 mph - N/A   Clear
12:53 PM 68.0 °F 55.4 °F 64% 30.18 in 10.0 mi NNW 13.8 mph - N/A   Clear
1:53 PM 68.0 °F 55.4 °F 64% 30.18 in 10.0 mi NNW 16.1 mph - N/A   Clear
2:53 PM 69.8 °F 55.4 °F 60% 30.18 in 10.0 mi NNW 17.3 mph - N/A   Clear
3:53 PM 69.8 °F 53.6 °F 56% 30.17 in 10.0 mi NNW 16.1 mph - N/A   Clear
4:53 PM 71.1 °F 54.0 °F 55% 30.17 in 10.0 mi NNW 15.0 mph - N/A   Clear
5:53 PM 73.0 °F 52.0 °F 48% 30.15 in 10.0 mi NW 11.5 mph 20.7 mph N/A   Clear
7:53 PM 69.1 °F 52.0 °F 54% 30.14 in 10.0 mi NNW 12.7 mph - N/A   Clear
8:53 PM 66.9 °F 52.0 °F 59% 30.14 in 10.0 mi NW 11.5 mph - N/A   Clear
9:53 PM 64.9 °F 52.0 °F 63% 30.14 in 10.0 mi NW 10.4 mph - N/A   Clear
10:53 PM 64.0 °F 53.1 °F 67% 30.14 in 10.0 mi NW 11.5 mph - N/A   Clear
11:53 PM 63.0 °F 52.0 °F 67% 30.14 in 10.0 mi NW 10.4 mph 20.7 mph N/A   Clear